Pittsfield, MA

5:47 AM EDT on July 23, 2017 (GMT -0400)
Pittsfield Municipal

Weather History for KPSF - February, 2012

Change the Weather History Date:

Friday, February 17, 2012

  Actual Average Record
Temperature  
Mean Temperature 36 °F 24 °F  
Max Temperature 42 °F 33 °F 54 °F (2011)
Min Temperature 30 °F 16 °F -18 °F (1943)
Degree Days  
Heating Degree Days 29 41  
Month to date heating degree days 612 723  
Since 1 July heating degree days 4081 4948  
Cooling Degree Days 0 0  
Month to date cooling degree days 0 0  
Year to date cooling degree days 0 0  
Moisture  
Dew Point 29 °F    
Average Humidity 74    
Maximum Humidity 100    
Minimum Humidity 48    
Precipitation  
Precipitation 0.17 in 0.11 in 0.96 in (1951)
Month to date precipitation 0.53 1.60  
Year to date precipitation 3.72 4.52  
Sea Level Pressure  
Sea Level Pressure 29.92 in    
Wind  
Wind Speed 11 mph (West)    
Max Wind Speed 22 mph    
Max Gust Speed 30 mph    
Visibility 7 miles    
Events Rain , Snow    
T = Trace of Precipitation, MM = Missing Value Source: NWS Daily Summary

Daily Weather History Graph

Daily Weather History Graph

Search for Another Location

Airport or City:

Trip Planner

Search our weather history database for the weather conditions in past years. The results will help you decide how hot, cold, wet, or windy it might be!

Date:

Astronomy

Feb. 17, 2012 Rise Set
Actual Time 6:47 AM EST 5:27 PM EST
Civil Twilight 6:18 AM EST 5:56 PM EST
Nautical Twilight 5:46 AM EST 6:28 PM EST
Astronomical Twilight 5:13 AM EST 7:01 PM EST
Moon 3:40 AM EST (2/17) 1:13 PM EST (2/17)
Length of Visible Light 11h 37m
Length of Day
10h 39m
Waning Crescent, 19% of the Moon is Illuminated
Feb 17
Waning Crescent
Feb 21
New
Feb 29
First Quarter
Mar 8
Full
Mar 14
Last Quarter

Hourly Weather History & Observations

Time (EST) Temp. Windchill Dew Point Humidity Pressure Visibility Wind Dir Wind Speed Gust Speed Precip Events Conditions
12:07 AM 33.8 °F 29.6 °F 33.8 °F 100% 29.94 in 4.0 mi South 4.6 mph - 0.00 in Rain Light Rain
12:54 AM 35.1 °F 30.1 °F 34.0 °F 96% 29.95 in 6.0 mi South 5.8 mph - 0.01 in   Overcast
1:20 AM 35.6 °F 30.7 °F 33.8 °F 93% 29.92 in 3.0 mi South 5.8 mph - 0.00 in Rain Light Rain
1:54 AM 36.0 °F 29.6 °F 34.0 °F 93% 29.93 in 5.0 mi SSW 8.1 mph - 0.02 in Rain Light Rain
2:54 AM 36.0 °F 31.1 °F 35.1 °F 97% 29.93 in 4.0 mi SSW 5.8 mph - 0.02 in Rain Light Rain
3:54 AM 36.0 °F 30.3 °F 35.1 °F 97% 29.91 in 4.0 mi SW 6.9 mph - 0.04 in Rain Light Rain
4:54 AM 36.0 °F 33.3 °F 35.1 °F 97% 29.92 in 5.0 mi WSW 3.5 mph - 0.03 in Rain Light Rain
5:35 AM 35.6 °F 31.7 °F 35.6 °F 100% 29.90 in 7.0 mi WSW 4.6 mph - 0.03 in Rain Light Rain
5:54 AM 36.0 °F 31.1 °F 35.1 °F 97% 29.93 in 6.0 mi West 5.8 mph - 0.04 in Rain Light Rain
6:54 AM 36.0 °F 29.6 °F 34.0 °F 93% 29.94 in 10.0 mi WNW 8.1 mph - 0.01 in   Overcast
8:54 AM 37.0 °F 31.6 °F 32.0 °F 82% 29.96 in 10.0 mi WNW 6.9 mph - N/A   Overcast
9:54 AM 39.0 °F 30.6 °F 30.0 °F 70% 29.95 in 10.0 mi WNW 15.0 mph 24.2 mph N/A   Partly Cloudy
10:54 AM 39.0 °F 31.8 °F 28.9 °F 67% 29.94 in 10.0 mi NW 11.5 mph 18.4 mph N/A   Overcast
11:54 AM 39.9 °F 31.1 °F 28.0 °F 63% 29.92 in 10.0 mi West 17.3 mph 26.5 mph N/A   Mostly Cloudy
12:54 PM 39.9 °F 29.7 °F 21.9 °F 49% 29.90 in 10.0 mi WNW 23.0 mph 27.6 mph N/A   Scattered Clouds
1:54 PM 39.9 °F 32.5 °F 21.9 °F 49% 29.89 in 10.0 mi NW 12.7 mph 25.3 mph N/A   Overcast
2:54 PM 37.9 °F 27.3 °F 19.9 °F 48% 29.89 in 10.0 mi WNW 21.9 mph 29.9 mph N/A   Scattered Clouds
3:54 PM 37.9 °F 30.9 °F 19.0 °F 47% 29.90 in 10.0 mi WNW 10.4 mph 20.7 mph N/A   Mostly Cloudy
4:54 PM 37.0 °F 31.6 °F 19.9 °F 50% 29.90 in 10.0 mi WNW 6.9 mph - N/A   Partly Cloudy
5:54 PM 35.1 °F 28.6 °F 19.9 °F 54% 29.92 in 10.0 mi WNW 8.1 mph - N/A   Clear
7:54 PM 33.1 °F 25.5 °F 21.9 °F 64% 29.92 in 10.0 mi West 9.2 mph - N/A   Mostly Cloudy
8:43 PM 33.8 °F 23.2 °F 26.6 °F 75% 29.92 in 1.8 mi WNW 17.3 mph 26.5 mph 0.00 in Snow Light Snow
8:48 PM 32.0 °F 21.2 °F 28.4 °F 87% 29.92 in 1.0 mi WNW 16.1 mph 26.5 mph 0.00 in Snow Light Snow
8:54 PM 30.9 °F 21.2 °F 28.0 °F 89% 29.95 in 1.0 mi WNW 12.7 mph 24.2 mph 0.00 in Snow Light Snow
9:01 PM 30.2 °F 20.2 °F 28.4 °F 93% 29.92 in 3.0 mi WNW 12.7 mph 24.2 mph 0.00 in Snow Light Snow
9:13 PM 30.2 °F 19.8 °F 26.6 °F 86% 29.92 in 9.0 mi West 13.8 mph 21.9 mph 0.00 in   Overcast
9:54 PM 30.9 °F 20.7 °F 27.0 °F 85% 29.94 in 9.0 mi West 13.8 mph 24.2 mph 0.00 in   Overcast
10:30 PM 30.2 °F 20.8 °F 26.6 °F 86% 29.92 in 10.0 mi WNW 11.5 mph - N/A   Overcast
10:54 PM 30.0 °F 19.5 °F 26.1 °F 85% 29.94 in 10.0 mi West 13.8 mph 19.6 mph N/A   Overcast